www.pogodaiklimat.ru

Погода и климат >> Архив погоды >> Аргентина >> San Juan


ПОГОДА в San Juan

  • Прогноз погоды в San Juan
  • Монитор погоды в San Juan
  • Климат города

АРХИВ ПОГОДЫ в San Juan

Время (UTC), дата Ветер
(напр.,м/с)
 
Видим.   Явления Облачность Т
(С)
Тd
(С)
f
(%)
Тe
(С)
Тes
(С)
Комфортность P
(гПа)
Po
(гПа)
Тmin
(С)
Tmax
(С)
R
(мм)
R24
(мм)
S
(см)
03 14.11 ЮЗ 3 15 км ясно +12.0 +4.1 58 +11 +11 1016.2 947.2
06 14.11 С 3 15 км ясно +8.6 +3.2 69 +6 +6 1014.3 945.4
09 14.11 С 4 15 км ясно +6.4 +1.9 73 +3 +3 1014.0 945.0
12 14.11 СЗ 2 15 км ясно +17.2 +5.4 46 +18 +22 1014.6 946.2 +5.5 +17.2 0.0
15 14.11 С 3 15 км ясно +24.6 +5.0 28 +24 +39 комфорт 1012.6 944.6
18 14.11 С 3 15 км ясно +27.7 +2.9 20 +26 +43 жарко 1009.5 941.7
21 14.11 Ю 3 15 км ясно +29.4 +2.9 18 +27 +32 жарко 1007.1 939.4
00 15.11 ЮЗ 3 15 км ясно +23.0 +2.8 27 +23 +23 комфорт 1007.5 940.2 +5.5 +30.0
03 15.11 В 2 15 км ясно +15.8 +5.3 50 +16 +16 1007.9 940.6
06 15.11 С 2 15 км ясно +14.0 +4.4 52 +14 +14 1005.5 938.5
09 15.11 С 5 15 км ясно +19.6 +1.9 31 +20 +20 1003.5 937.4
12 15.11 В 5 15 км ясно +23.5 -1.7 19 +22 +25 комфорт 1005.0 938.6 +12.6 +23.5
15 15.11 Ю 6 15 км ясно +28.9 -0.1 15 +26 +33 жарко 1004.8 938.2
18 15.11 Ю 8 15 км ясно +32.5 -0.3 12 +29 +32 жарко 1003.1 936.8
21 15.11 Ю 8 15 км ясно +33.4 -0.5 11 +30 +31 жарко 1001.7 936.2
00 16.11 Ю 8 15 км ясно +29.0 +1.7 17 +27 +27 жарко 1005.5 939.7 +23.5 +34.2
03 16.11 Ю 9 15 км ясно +23.4 +6.4 33 +24 +24 комфорт 1011.6 945.4
06 16.11 Ю 6 15 км ясно +18.4 +7.3 48 +18 +18 1011.8 945.4
09 16.11 Ю 4 15 км ясно +14.5 +6.8 60 +13 +13 1012.6 945.8
12 16.11 Ю 5 15 км ясно +18.4 +3.9 38 +18 +21 1012.8 946.0 +14.0 +29.0
15 16.11 В 3 15 км ясно +23.4 +5.9 32 +24 +39 комфорт 1009.8 943.0
18 16.11 ЮВ 4 15 км ясно +27.6 +7.0 27 +27 +41 жарко 1005.6 939.0
21 16.11 Ю 4 15 км ясно +29.0 +6.0 23 +28 +32 жарко 1001.4 934.9
00 17.11 Ю 2 15 км ясно +24.4 +9.5 39 +25 +25 комфорт 1002.6 936.0 +18.4 +30.5
03 17.11 штиль 0 15 км ясно +19.4 +9.6 53 +20 +20 1003.7 937.0
06 17.11 ЮЗ 2 15 км ясно +17.0 +9.6 62 +18 +18 1003.5 937.0
09 17.11 В 3 15 км ясно +11.6 +6.3 70 +10 +10 1004.0 937.0
12 17.11 ЮВ 7 15 км ясно +22.0 +8.5 42 +23 +25 комфорт 1006.4 939.8 +11.3 +24.4
18 17.11 Ю 10 15 км ясно +28.8 +3.8 20 +27 +28 жарко 1005.8 939.3
21 17.11 Ю 10 15 км ясно +29.4 +4.3 20 +28 +28 жарко 1006.3 939.2
00 18.11 Ю 9 15 км 1/0
[Ac As]
+24.2 +4.3 28 +24 +24 комфорт 1011.4 944.5 +22.0 +30.5
06 18.11 Ю 4 15 км ясно +13.4 +1.8 45 +12 +12 1018.7 950.9
09 18.11 Ю 2 15 км ясно +9.6 +3.1 64 +8 +8 1019.5 951.3
12 18.11 штиль 0 15 км ясно +18.0 +3.5 38 +18 +25 1019.6 951.8 +9.0 +24.2
15 18.11 В 3 15 км ясно +23.2 +3.8 28 +23 +38 комфорт 1017.5 949.8
18 18.11 С 3 15 км ясно +26.0 +5.7 27 +25 +43 комфорт 1014.1 946.2
21 18.11 Ю 3 15 км ясно +27.8 +5.7 25 +27 +31 жарко 1011.1 943.3
00 19.11 ЮЗ 2 15 км ясно +22.0 +7.5 39 +23 +23 комфорт 1011.7 944.1 +18.0 +28.5
06 19.11 В 2 15 км ясно +16.8 +9.2 61 +17 +17 1016.5 943.3
09 19.11 С 3 15 км ясно +16.4 +8.9 61 +16 +16 1009.4 942.5
12 19.11 С 3 15 км ясно +24.2 +10.6 42 +25 +30 комфорт 1009.9 943.0 +15.5 +24.3
15 19.11 В 3 15 км ясно +28.6 +7.4 26 +28 +43 жарко 1008.4 941.8
18 19.11 В 3 15 км ясно +31.8 +7.4 22 +30 +46 жарко 1005.4 939.2
21 19.11 Ю 6 15 км ясно +34.6 +3.7 14 +32 +34 жарко 1002.5 936.6
00 20.11 Ю 4 15 км ясно +28.0 +8.0 28 +28 +28 жарко 1004.6 938.8 +24.2 +35.2
03 20.11 ЮЗ 4 15 км ясно +23.6 +8.3 38 +24 +24 комфорт 1006.8 940.9
06 20.11 С 1 15 км ясно +20.8 +10.5 52 +24 +24 комфорт 1006.4 940.6
09 20.11 ЮЗ 3 15 км ясно +15.6 +9.7 68 +15 +15 1008.1 941.8
12 20.11 ЮЗ 3 15 км ясно +23.8 +10.5 43 +25 +30 комфорт 1010.3 944.1 +15.6 +28.0
15 20.11 ЮВ 6 15 км ясно +31.0 +11.3 30 +31 +38 жарко 1009.1 943.3
18 20.11 Ю 6 15 км ясно +34.4 +8.1 20 +33 +40 жарко 1005.6 940.1
21 20.11 Ю 5 15 км ясно +36.0 +7.1 17 +34 +37 очень
жарко
1002.9 937.2

 

Местоположение метеостанции San Juan (Аргентина): широта -31.40 долгота -68.41 высота над уровнем моря 598 м.

В архиве по умолчанию представлена погода в San Juan за последнюю неделю. Архивные данные за месяц целиком и за предыдущие месяцы, начиная с января 2011 года, Вы можете получить, выбрав интересующий диапазон дат из раскрывающегося списка и нажав кнопку "Ввод!".


*Определитесь, кто Вы:
робот инопланетянин человек

Внимание! Время в таблицах - всемирное. Для получения местного времени необходимо прибавить поправку, которая в San Juan равна -3 ч.

Смотрите также архив погоды в соседних городах и на ближайших метеорологических станциях:

Погода в Mendoza (Аргентина) (163 км)
Погода в San Martin (Аргентина) (187 км)
Погода в Chamical (Аргентина) (234 км)
Погода в La Rioja (Аргентина) (272 км)
Погода в San Luis (Аргентина) (283 км)
Погода в Santiago (Чили) (310 км)
Погода в Pudahuel (Чили) (313 км)
Погода в La Serena (Чили) (314 км)
Погода в Villa Dolores (Аргентина) (316 км)
Погода в Coquimbo (Чили) (326 км)

Пояснения к столбцам:

Ветер - указаны скорость ветра в м/с - средняя за 10 мин, порывы в срок и между сроками (в фигурных скобках) и направление, откуда дует ветер: С - северный, СВ - северо-восточный, В - восточный, ЮВ - юго-восточный, Ю - южный, ЮЗ - юго-западный, З - западный, СЗ - северо-западный.
Видимость - горизонтальная дальность видимости в метрах или километрах. При видимости от 1 до 10 км при отсутствии осадков обычно наблюдается дымка, при ухудшении видимости до 1 км и менее - туман. В сухую погоду видимость может ухудшаться дымом, пылью или мглою.
Явления - указаны атмосферные явления, наблюдавшиеся в срок или в последний час перед сроком; фигурными скобками обозначены явления, наблюдавшиеся между сроками (за 1-3 часа до срока); квадратными скобками обозначены град или гололедные отложения с указанием их диаметра в мм.
Облачность - указаны через наклонную черту общая и нижняя облачность в баллах и высота нижней границы облаков в метрах; квадратными скобками обозначены формы облаков: Ci - перистые, Cs - перисто-слоистые, Cc - перисто-кучевые, Ac - высококучевые, As - высокослоистые, Sc - слоисто-кучевые, Ns - слоисто-дождевые, Cu - кучевые, Cb - кучево-дождевые. Подробнее классификацию облаков см. в Атласе облаков (PDF).
T - Температура воздуха - температура, измеренная на высоте 2 м над землей.
Td - Температура точки росы - температура, при понижении до которой содержащийся в воздухе водяной пар достигнет насыщения.
f - Относительная влажность воздуха - влажноcть воздуха, измеренная на высоте 2 м над землей.
Te - Эффективная температура - температура, которую ощущает одетый по сезону человек в тени. Характеристика душности погоды. При расчете учитывается влияние влажности воздуха и скорости ветра на теплоощущения человека.
Tes - Эффективная температура на солнце - температура, которую ощущает человек, с поправкой на солнечный нагрев. Характеристика знойности погоды. Зависит от высоты солнца над горизонтом, облачности и скорости ветра. Ночью, в пасмурную погоду, а также при ветре 12 м/с и более поправка равна нулю.
P - Атмосферное давление - приведенное к уровню моря атмосферное давление.
Po - Атмосферное давление - измеренное на уровне метеостанции атмосферное давление.
Tmin - Минимальная температура - минимум температуры воздуха на высоте 2 м над землей.
Tmax - Максимальная температура - максимум температуры воздуха на высоте 2 м над землей.
R - Количество осадков - Количество выпавших осадков за период времени, мм. При наведении курсора мыши на число - период времени, за который выпало указанное количество осадков.
R24 - Количество осадков - Количество выпавших осадков за 24 часа, мм.
S - Снежный покров - Высота снежного покрова, см. При наведении курсора мыши на число - состояние снежного покрова и степень покрытия местности в баллах.